Eindhoven, Netherlands

7:40 AM CEST on May 28, 2017 (GMT +0200)
Eindhoven Air Base

Weather History for EHEH - November, 2012

Change the Weather History Date:

Monday, November 19, 2012

  Actual Average Record
Temperature  
Mean Temperature 40 °F -  
Max Temperature 50 °F 43 °F 56 °F (2015)
Min Temperature 30 °F 34 °F 24 °F (1998)
Degree Days  
Heating Degree Days 25    
Moisture  
Dew Point 42 °F    
Average Humidity 100    
Maximum Humidity 100    
Minimum Humidity 94    
Precipitation  
Precipitation 0.00 in - - ()
Sea Level Pressure  
Sea Level Pressure 29.99 in    
Wind  
Wind Speed 4 mph ()    
Max Wind Speed 8 mph    
Max Gust Speed -    
Visibility 1.6 miles    
Events Fog    
Averages and records for this station are not official NWS values.
T = Trace of Precipitation, MM = Missing Value Source: Averaged Metar Reports

Daily Weather History Graph

Daily Weather History Graph

Search for Another Location

Airport or City:

Trip Planner

Search our weather history database for the weather conditions in past years. The results will help you decide how hot, cold, wet, or windy it might be!

Date:

Astronomy

Nov. 19, 2012 Rise Set
Actual Time 8:03 AM CET 4:43 PM CET
Civil Twilight 7:25 AM CET 5:21 PM CET
Nautical Twilight 6:44 AM CET 6:02 PM CET
Astronomical Twilight 6:05 AM CET 6:41 PM CET
Moon 12:43 PM CET (11/19) 11:10 PM CET (11/19)
Length of Visible Light 9h 55m
Length of Day
8h 40m
Waxing Crescent, 38% of the Moon is Illuminated
Nov 19
Waxing Crescent
Nov 20
First Quarter
Nov 28
Full
Dec 6
Last Quarter
Dec 13
New

Hourly Weather History & Observations

Time (CET) Temp. Windchill Dew Point Humidity Pressure Visibility Wind Dir Wind Speed Gust Speed Precip Events Conditions
12:25 AM 30.2 °F - 30.2 °F 100% 30.04 in 0.2 mi SSE 1.2 mph - N/A Fog Light Freezing Fog
12:29 AM 30.2 °F - 30.2 °F 100% 30.04 in 0.2 mi SE 1.2 mph - N/A Fog Light Freezing Fog
12:55 AM 30.2 °F - 30.2 °F 100% 30.04 in 0.2 mi SE 1.2 mph - N/A Fog Light Freezing Fog
1:00 AM 30 °F - 30 °F 100% 30.06 in 0 mi SE 2.2 mph - - Fog Fog
1:25 AM 30.2 °F - 30.2 °F 100% 30.04 in 0.1 mi ESE 1.2 mph - N/A Fog Light Freezing Fog
1:55 AM 30.2 °F - 30.2 °F 100% 30.04 in 0.2 mi East 1.2 mph - N/A Fog Light Freezing Fog
2:25 AM 32.0 °F - 32.0 °F 100% 30.04 in 0.1 mi NNE 1.2 mph - N/A Fog Light Freezing Fog
2:55 AM 32.0 °F - 32.0 °F 100% 30.04 in 0.2 mi East 1.2 mph - N/A Fog Light Freezing Fog
3:25 AM 32.0 °F - 32.0 °F 100% 30.04 in 0.2 mi ESE 1.2 mph - N/A Fog Light Freezing Fog
3:55 AM 33.8 °F 30.8 °F 33.8 °F 100% 30.04 in 0.2 mi SE 3.5 mph - N/A Fog Fog
4:00 AM 34 °F - 34 °F 98% 30.04 in 0 mi SSE 4.5 mph - - Fog Fog
4:25 AM 33.8 °F 30.8 °F 33.8 °F 100% 30.04 in 0.2 mi SE 3.5 mph - N/A Fog Fog
4:55 AM 33.8 °F 29.6 °F 33.8 °F 100% 30.01 in 0.2 mi SE 4.6 mph - N/A Fog Fog
5:25 AM 35.6 °F 32.8 °F 35.6 °F 100% 30.01 in - East 3.5 mph - N/A Fog Fog
5:49 AM 35.6 °F 32.8 °F 35.6 °F 100% 30.01 in - East 3.5 mph - N/A Fog Fog
5:55 AM 35.6 °F 32.8 °F 35.6 °F 100% 30.01 in 0.6 mi East 3.5 mph - N/A   Overcast
6:05 AM 37.4 °F 34.9 °F 37.4 °F 100% 30.01 in 1.2 mi ESE 3.5 mph - N/A   Mostly Cloudy
6:15 AM 37.4 °F 33.8 °F 37.4 °F 100% 30.01 in 1.5 mi ESE 4.6 mph - N/A   Overcast
6:25 AM 37.4 °F 34.9 °F 37.4 °F 100% 30.01 in 0.9 mi ESE 3.5 mph - N/A   Overcast
6:26 AM 37.4 °F 34.9 °F 37.4 °F 100% 30.01 in 0.9 mi ESE 3.5 mph - N/A   Overcast
6:28 AM 37.4 °F 34.9 °F 37.4 °F 100% 30.01 in 0.9 mi ESE 3.5 mph - N/A   Overcast
6:37 AM 37.4 °F 34.9 °F 37.4 °F 100% 30.01 in - ESE 3.5 mph - N/A Fog Fog
6:55 AM 35.6 °F 32.8 °F 35.6 °F 100% 30.01 in 0.3 mi ESE 3.5 mph - N/A Fog Fog
7:00 AM 36 °F - 36 °F 100% 30.02 in 0 mi ESE 2.2 mph - - Fog Fog
7:25 AM 37.4 °F 33.8 °F 37.4 °F 100% 30.01 in 0.2 mi SE 4.6 mph - N/A Fog Fog
7:43 AM 37.4 °F 32.8 °F 37.4 °F 100% 30.01 in 0.1 mi SE 5.8 mph - N/A Fog Fog
7:48 AM 37.4 °F 32.8 °F 37.4 °F 100% 30.01 in 0.1 mi SE 5.8 mph - N/A Fog Fog
7:55 AM 37.4 °F 32.8 °F 37.4 °F 100% 30.01 in 0.1 mi SE 5.8 mph - N/A Fog Fog
7:57 AM 37.4 °F 32.8 °F 37.4 °F 100% 30.01 in 0.1 mi SE 5.8 mph - N/A Fog Fog
8:13 AM 35.6 °F 31.7 °F 35.6 °F 100% 30.01 in 0.2 mi SE 4.6 mph - N/A Fog Fog
8:19 AM 35.6 °F 31.7 °F 35.6 °F 100% 30.01 in 0.2 mi SE 4.6 mph - N/A Fog Fog
8:25 AM 35.6 °F 31.7 °F 35.6 °F 100% 30.01 in 0.2 mi SE 4.6 mph - N/A Fog Fog
8:40 AM 35.6 °F 29.9 °F 35.6 °F 100% 30.01 in 0.2 mi SSE 6.9 mph - N/A Fog Fog
8:55 AM 37.4 °F 32.1 °F 37.4 °F 100% 30.01 in 0.2 mi SE 6.9 mph - N/A Fog Fog
9:03 AM 37.4 °F 32.8 °F 37.4 °F 100% 30.01 in 0.2 mi SE 5.8 mph - N/A Fog Fog
9:10 AM 37.4 °F 33.8 °F 37.4 °F 100% 30.01 in 0.2 mi SE 4.6 mph - N/A Fog Fog
9:25 AM 37.4 °F 34.9 °F 37.4 °F 100% 30.01 in 0.1 mi SE 3.5 mph - N/A Fog Fog
9:55 AM 37.4 °F 32.8 °F 37.4 °F 100% 30.01 in 0.1 mi SE 5.8 mph - N/A Fog Fog
10:00 AM 38 °F - 38 °F 99% 30.02 in 0 mi SE 4.5 mph - - Fog Fog
10:25 AM 39.2 °F 35.9 °F 39.2 °F 100% 30.01 in 0.1 mi ESE 4.6 mph - N/A Fog Fog
10:55 AM 39.2 °F 35.0 °F 39.2 °F 100% 30.01 in 0.1 mi SE 5.8 mph - N/A Fog Fog
11:13 AM 39.2 °F 35.9 °F 39.2 °F 100% 30.01 in 0.2 mi ESE 4.6 mph - N/A Fog Fog
11:25 AM 41.0 °F 38.0 °F 41.0 °F 100% 29.98 in 0.2 mi ESE 4.6 mph - N/A Fog Fog
11:50 AM 41.0 °F 39.0 °F 41.0 °F 100% 29.98 in 0.2 mi SSE 3.5 mph - N/A Fog Fog
11:55 AM 41.0 °F 38.0 °F 41.0 °F 100% 29.98 in 0.3 mi South 4.6 mph - N/A Fog Fog
11:58 AM 41.0 °F 38.0 °F 41.0 °F 100% 29.98 in 0.3 mi South 4.6 mph - N/A Fog Fog
12:05 PM 41.0 °F 38.0 °F 41.0 °F 100% 29.98 in 0.3 mi SSE 4.6 mph - N/A Fog Fog
12:06 PM 41.0 °F 38.0 °F 41.0 °F 100% 29.98 in 0.3 mi SSE 4.6 mph - N/A Fog Fog
12:13 PM 42.8 °F 40.1 °F 42.8 °F 100% 29.98 in - SE 4.6 mph - N/A Fog Fog
12:20 PM 42.8 °F 40.1 °F 42.8 °F 100% 29.98 in - SSE 4.6 mph - N/A Fog Fog
12:25 PM 42.8 °F 40.1 °F 42.8 °F 100% 29.98 in 0.3 mi SSE 4.6 mph - N/A Fog Fog
12:33 PM 42.8 °F 40.1 °F 42.8 °F 100% 29.98 in - SSE 4.6 mph - N/A Fog Fog
12:47 PM 42.8 °F 41.1 °F 42.8 °F 100% 29.98 in 0.6 mi South 3.5 mph - N/A   Overcast
12:48 PM 42.8 °F 41.1 °F 42.8 °F 100% 29.98 in 1.1 mi SSE 3.5 mph - N/A   Mostly Cloudy
12:55 PM 42.8 °F 40.1 °F 42.8 °F 100% 29.98 in 1.1 mi SSE 4.6 mph - N/A   Mostly Cloudy
12:59 PM 42.8 °F 40.1 °F 42.8 °F 100% 29.98 in 1.1 mi SSE 4.6 mph - N/A   Mostly Cloudy
1:00 PM 43 °F - 43 °F 100% 29.98 in 1 mi SSE 4.5 mph - - Fog Fog
1:02 PM 42.8 °F 40.1 °F 42.8 °F 100% 29.98 in 1.2 mi SSE 4.6 mph - N/A   Overcast
1:16 PM 42.8 °F 41.1 °F 42.8 °F 100% 29.98 in 1.4 mi SE 3.5 mph - N/A   Mostly Cloudy
1:25 PM 44.6 °F 43.1 °F 44.6 °F 100% 29.98 in 1.7 mi SE 3.5 mph - N/A   Overcast
1:29 PM 44.6 °F 43.1 °F 44.6 °F 100% 29.98 in 1.7 mi SE 3.5 mph - N/A   Overcast
1:33 PM 44.6 °F 43.1 °F 44.6 °F 100% 29.98 in - SE 3.5 mph - N/A   Overcast
1:34 PM 44.6 °F 43.1 °F 44.6 °F 100% 29.98 in - SE 3.5 mph - N/A   Overcast
1:39 PM 44.6 °F 43.1 °F 44.6 °F 100% 29.98 in - SE 3.5 mph - N/A   Overcast
1:55 PM 44.6 °F 42.2 °F 44.6 °F 100% 29.98 in - SE 4.6 mph - N/A   Overcast
2:06 PM 46.4 °F 44.3 °F 46.4 °F 100% 29.98 in - SSE 4.6 mph - N/A   Overcast
2:17 PM 46.4 °F 44.3 °F 46.4 °F 100% 29.98 in 3.1 mi SE 4.6 mph - N/A   Overcast
2:21 PM 46.4 °F 44.3 °F 46.4 °F 100% 29.98 in 3.1 mi SSE 4.6 mph - N/A   Overcast
2:25 PM 46.4 °F 44.3 °F 46.4 °F 100% 29.98 in 3.1 mi SSE 4.6 mph - N/A   Overcast
2:33 PM 46.4 °F 45.2 °F 46.4 °F 100% 29.98 in 3.1 mi SSE 3.5 mph - N/A   Overcast
2:37 PM 46.4 °F 44.3 °F 46.4 °F 100% 29.95 in 3.1 mi SSE 4.6 mph - N/A   Overcast
2:55 PM 46.4 °F 44.3 °F 46.4 °F 100% 29.95 in - SE 4.6 mph - N/A   Overcast
3:04 PM 46.4 °F 44.3 °F 46.4 °F 100% 29.95 in - SE 4.6 mph - N/A   Overcast
3:25 PM 48.2 °F - 48.2 °F 100% 29.95 in - SE 4.6 mph - N/A   Overcast
3:31 PM 48.2 °F - 48.2 °F 100% 29.95 in 3.1 mi SSE 4.6 mph - N/A   Overcast
3:33 PM 48.2 °F - 48.2 °F 100% 29.95 in - SSE 4.6 mph - N/A   Overcast
3:40 PM 48.2 °F - 48.2 °F 100% 29.95 in 3.1 mi SSE 5.8 mph - N/A   Overcast
3:55 PM 48.2 °F - 48.2 °F 100% 29.95 in 3.1 mi SSE 6.9 mph - N/A   Overcast
3:57 PM 48.2 °F - 48.2 °F 100% 29.95 in 3.1 mi SSE 6.9 mph - N/A   Overcast
4:00 PM 49 °F - 49 °F 99% 29.97 in 3 mi SSE 6.7 mph - -   Mist
4:16 PM 48.2 °F - 48.2 °F 100% 29.95 in 3.7 mi SSE 6.9 mph - N/A   Mostly Cloudy
4:25 PM 48.2 °F - 48.2 °F 100% 29.95 in 3.1 mi SSE 5.8 mph - N/A   Mostly Cloudy
4:42 PM 48.2 °F - 48.2 °F 100% 29.95 in - SSE 5.8 mph - N/A   Overcast
4:48 PM 48.2 °F - 48.2 °F 100% 29.95 in 3.1 mi SSE 5.8 mph - N/A   Overcast
4:55 PM 48.2 °F - 48.2 °F 100% 29.95 in 3.1 mi SSE 4.6 mph - N/A   Overcast
5:01 PM 48.2 °F - 48.2 °F 100% 29.95 in - SSE 4.6 mph - N/A   Overcast
5:05 PM 48.2 °F - 48.2 °F 100% 29.95 in 3.1 mi South 4.6 mph - N/A   Overcast
5:09 PM 48.2 °F - 48.2 °F 100% 29.98 in 3.1 mi South 4.6 mph - N/A   Overcast
5:25 PM 50.0 °F - 50.0 °F 100% 29.98 in 4.3 mi SSW 5.8 mph - N/A   Overcast
5:38 PM 50.0 °F - 50.0 °F 100% 29.95 in 5.6 mi SSW 5.8 mph - N/A   Overcast
5:55 PM 48.2 °F - 48.2 °F 100% 29.98 in 4.3 mi SSE 4.6 mph - N/A   Overcast
6:01 PM 48.2 °F - 48.2 °F 100% 29.98 in - SE 4.6 mph - N/A   Overcast
6:05 PM 48.2 °F - 48.2 °F 100% 29.98 in 3.1 mi SE 4.6 mph - N/A   Overcast
6:13 PM 48.2 °F - 48.2 °F 100% 29.98 in - SE 4.6 mph - N/A   Overcast
6:25 PM 48.2 °F - 48.2 °F 100% 29.98 in - SE 4.6 mph - N/A   Overcast
6:55 PM 48.2 °F - 48.2 °F 100% 29.98 in - SE 5.8 mph - N/A   Overcast
7:00 PM 48 °F - 48 °F 100% 29.99 in 3 mi SSE 6.7 mph - -   Mist
7:25 PM 48.2 °F - 48.2 °F 100% 29.98 in 2.5 mi SSE 4.6 mph - N/A   Overcast
7:50 PM 48.2 °F - 48.2 °F 100% 29.98 in 3.1 mi SSE 5.8 mph - N/A   Overcast
7:55 PM 48.2 °F - 48.2 °F 100% 29.98 in - South 5.8 mph - N/A   Overcast
7:59 PM 48.2 °F - 48.2 °F 100% 29.98 in 3.1 mi South 5.8 mph - N/A   Overcast
8:12 PM 48.2 °F - 48.2 °F 100% 29.98 in 3.1 mi South 5.8 mph - N/A   Overcast
8:25 PM 50.0 °F - 50.0 °F 100% 29.98 in 3.7 mi SSE 8.1 mph - N/A   Overcast
8:55 PM 50.0 °F - 50.0 °F 100% 29.98 in 3.7 mi South 6.9 mph - N/A   Overcast
9:25 PM 50.0 °F - 50.0 °F 100% 29.98 in 3.7 mi South 5.8 mph - N/A   Overcast
9:55 PM 50.0 °F - 50.0 °F 100% 29.98 in 3.7 mi South 6.9 mph - N/A   Overcast
10:00 PM 50 °F - 49 °F 95% 30.00 in 4 mi South 6.7 mph - -   Mist
10:16 PM 50.0 °F - 50.0 °F 100% 29.98 in 3.7 mi South 6.9 mph - N/A   Overcast
10:25 PM 50.0 °F - 48.2 °F 94% 29.98 in 3.7 mi South 8.1 mph - N/A   Overcast
10:55 PM 48.2 °F - 48.2 °F 100% 29.98 in 3.1 mi South 6.9 mph - N/A   Mostly Cloudy
11:25 PM 50.0 °F - 48.2 °F 94% 29.98 in 3.1 mi South 6.9 mph - N/A   Overcast
11:32 PM 48.2 °F - 48.2 °F 100% 29.98 in 3.1 mi South 6.9 mph - N/A   Overcast
11:38 PM 48.2 °F - 48.2 °F 100% 30.01 in 3.1 mi South 6.9 mph - N/A   Overcast
11:51 PM 50.0 °F - 48.2 °F 94% 30.01 in 3.1 mi South 6.9 mph - N/A   Overcast
11:55 PM 50.0 °F - 48.2 °F 94% 30.01 in 3.1 mi South 6.9 mph - N/A   Overcast